EHI
0 0 2 5 5 2 0 0 0 0 0 0 0 0 0 0 0 0 0 0 0 0 0 0 1 2 3 5 5 4 4 3 1 0 0 0 0 0 0 0 0 0 0 0 0 0 0 0 0
0 0 1 3 2 1 0 0 0 0 0 0 0 0 0 0 0 0 0 0 0 0 0 1 1 2 3 4 4 4 3 2 1 0 0 0 0 0 0 0 0 0 0 0 0 0 0 0 0
0 0 0 1 0 0 0 0 0 0 0 0 0 0 0 1 0 0 0 0 0 0 1 2 2 1 2 3 3 3 3 3 1 0 0 0 0 0 0 0 0 0 0 0 0 0 0 0 0
0 0 0 0 0 0 0 0 0 0 0 0 0 0 0 0 0 0 0 0 0 0 1 2 2 1 1 1 2 3 4 3 1 0 0 0 0 0 0 0 0 0 0 0 0 0 0 0 0
0 0 0 0 0 0 0 0 0 0 0 0 0 0 0 0 0 0 0 0 0 0 0 1 3 2 2 2 3 3 3 1 0 0 0 0 0 0 0 0 0 0 0 0 0 0 0 0 0
0 0 0 0 0 0 0 0 0 0 0 0 0 0 1 1 0 0 0 0 0 0 0 1 3 3 3 4 4 3 2 1 0 0 0 0 0 0 0 0 0 0 0 0 0 0 0 0 0
0 0 0 0 0 0 0 0 0 0 1 1 0 0 3 4 2 0 0 0 0 0 0 0 1 2 3 4 4 4 3 2 1 0 0 0 0 0 0 0 0 0 0 0 0 0 0 0 0
0 0 0 0 0 0 0 0 0 1 2 2 1 0 5 10 7 2 1 0 0 0 0 0 0 1 1 3 4 4 4 4 3 2 1 0 0 0 0 0 0 0 0 0 0 0 0 0 0
0 0 0 0 0 0 0 0 0 2 3 3 2 5 14 21 15 6 3 1 1 1 0 0 0 0 0 1 2 3 4 4 3 2 1 1 0 0 0 0 0 0 0 0 0 0 0 0 0
0 0 0 0 0 0 0 0 0 1 3 5 8 16 29 32 22 11 6 4 3 2 1 0 0 0 0 0 1 1 2 2 1 1 1 1 1 0 0 0 0 0 0 0 0 0 0 0 0
0 0 0 0 0 0 0 0 0 0 1 6 16 30 38 33 22 13 8 5 3 2 1 0 0 1 1 0 0 0 1 1 1 0 1 1 1 0 0 0 0 0 0 0 0 0 0 0 0
0 0 0 0 0 0 0 0 1 1 1 7 23 38 39 29 19 13 9 6 3 2 1 1 1 3 3 2 1 2 2 2 2 1 1 1 1 1 1 0 0 0 0 0 0 0 0 0 0
0 0 0 0 0 0 0 1 2 2 2 9 27 38 35 26 18 12 9 7 5 4 4 4 4 6 7 6 4 3 3 2 2 3 2 1 1 1 0 0 0 0 0 0 0 0 0 0 0
0 0 0 0 0 0 0 1 3 4 5 12 26 34 31 23 17 11 9 9 7 6 7 8 8 8 8 7 5 3 3 2 2 3 3 2 1 0 0 0 0 0 0 0 1 1 0 0 0
0 0 0 0 0 0 0 1 4 6 8 12 20 26 27 24 18 13 10 9 8 7 7 9 9 9 7 5 4 3 1 1 1 2 3 2 1 0 0 0 0 0 0 1 1 1 0 0 0
0 0 0 0 0 0 0 2 5 6 8 11 14 18 24 26 22 16 12 10 9 10 11 12 11 10 10 7 5 3 1 0 1 3 3 3 1 0 0 0 0 0 1 1 1 0 0 0 0
0 0 0 0 0 0 0 2 5 6 7 9 11 16 24 27 23 18 14 11 12 15 19 19 15 14 14 11 7 4 2 2 2 3 3 3 2 1 0 0 0 0 1 2 1 0 0 0 0
0 0 0 0 0 0 0 1 4 6 7 7 10 15 23 25 22 19 17 15 16 20 25 26 23 20 18 14 10 7 5 3 3 3 3 3 3 1 1 0 0 1 2 3 2 2 2 1 1
0 0 0 0 0 0 0 1 4 6 6 6 9 15 23 24 23 23 23 22 21 24 29 31 30 26 23 19 14 11 7 5 4 3 3 3 3 3 2 1 1 2 3 4 4 4 4 3 2
0 0 0 0 0 0 0 1 3 5 6 7 9 15 21 25 27 31 32 30 29 31 33 34 33 30 26 22 18 15 10 7 5 4 3 3 3 3 2 1 3 5 6 5 5 6 5 4 3
0 0 0 0 0 0 0 1 2 4 7 9 11 12 16 22 29 35 39 40 39 40 39 35 34 34 30 24 20 17 12 8 6 4 3 2 2 3 3 3 5 7 8 7 6 6 5 4 3
0 0 0 0 0 0 0 0 1 4 7 12 13 12 13 19 27 35 41 46 47 46 44 40 39 39 36 28 22 19 13 8 5 3 2 1 1 3 5 6 6 6 7 6 6 5 5 4 4
0 0 0 0 0 0 0 0 0 2 5 10 15 16 15 19 29 38 42 46 46 45 44 44 44 44 41 33 25 19 12 6 3 2 2 3 3 3 5 7 7 6 6 6 5 5 5 6 6
0 0 0 0 0 0 0 0 0 1 2 6 13 17 19 23 33 42 45 45 44 43 44 46 46 46 42 35 25 18 13 7 4 2 4 7 8 6 4 6 8 9 9 7 8 7 6 7 9
0 0 0 0 0 0 0 0 0 1 2 4 10 18 23 28 35 43 46 47 46 44 45 45 46 45 41 34 26 19 15 12 7 4 4 8 11 9 6 5 8 11 11 11 12 10 7 9 11
0 0 0 0 0 0 0 0 0 1 2 5 10 18 26 32 37 40 42 43 43 41 40 40 41 40 37 32 26 20 16 13 8 5 5 7 9 9 7 6 8 11 12 13 16 13 10 11 13
0 0 0 0 0 0 0 0 0 0 1 5 10 18 28 35 37 35 34 35 36 34 33 33 33 32 29 26 22 17 13 11 8 6 5 5 5 5 4 4 6 8 10 13 16 15 13 13 14
0 0 0 0 0 0 0 0 0 1 3 6 11 19 29 35 34 32 32 32 30 28 28 28 27 25 24 22 20 16 13 11 10 8 6 5 5 4 4 4 6 7 8 11 14 14 13 13 13
0 0 0 0 0 0 0 0 1 3 6 10 14 21 30 35 35 36 38 36 30 27 28 29 27 25 23 20 18 15 14 13 11 9 6 6 7 7 7 7 9 8 7 8 10 10 10 10 9
0 0 0 0 0 0 0 1 2 4 8 13 18 25 32 37 40 42 44 39 31 30 31 31 29 25 22 18 15 13 12 12 11 9 7 7 9 10 10 10 11 10 6 6 8 9 8 8 8
Wind_Speed
8 6 5 5 4 6 13 11 9 8 7 7 6 5 6 8 7 10 10 13 14 14 15 14 11 12 12 12 12 12 13 13 13 12 12 12 13 13 13 13 13 14 15 15 15 15 15 15 15
4 4 6 5 3 9 12 9 10 10 8 7 6 5 7 9 9 11 12 13 14 14 14 13 13 12 12 12 12 12 12 12 12 12 12 12 12 12 13 13 14 14 14 14 14 14 14 14 14
5 6 5 0 8 10 11 9 9 9 6 5 5 7 7 8 9 10 13 15 14 13 13 14 13 12 12 12 11 11 12 12 12 12 12 12 12 12 13 13 13 14 14 13 13 13 13 13 13
5 5 4 4 12 11 8 7 6 7 7 6 6 9 8 7 6 11 15 15 14 13 13 15 12 12 12 11 11 11 11 11 11 11 11 12 12 12 12 12 13 13 13 13 13 12 12 12 12
6 4 3 8 11 9 7 6 4 5 6 6 6 10 10 7 10 15 15 14 13 13 13 15 12 12 11 11 11 11 11 10 11 11 11 11 11 11 12 12 12 12 12 12 12 11 11 11 11
5 3 3 9 10 7 6 5 4 7 8 7 8 11 9 8 12 14 14 12 12 12 13 14 12 11 11 10 10 10 10 10 10 10 11 11 11 11 11 11 11 11 11 11 10 10 10 10 11
4 1 6 8 8 8 6 4 4 6 7 7 6 9 10 10 12 13 12 11 11 11 11 12 13 11 10 10 9 10 10 10 10 10 10 10 10 10 10 11 11 11 10 10 10 9 9 10 10
5 2 6 6 6 8 6 4 4 4 7 7 4 6 10 13 12 12 12 10 10 10 10 10 10 10 10 10 10 9 9 9 9 10 10 10 11 10 10 10 10 10 10 9 9 9 9 9 9
6 2 6 6 5 6 5 5 5 4 8 6 4 5 13 18 15 13 12 11 10 9 8 8 9 8 8 9 11 10 10 9 9 9 9 8 8 9 8 10 9 9 9 8 8 8 8 9 10
5 1 8 5 4 4 4 3 5 6 7 7 9 12 17 17 15 14 14 13 12 10 9 8 8 8 7 6 7 6 7 7 5 6 7 5 5 4 6 11 8 8 8 8 7 7 8 7 7
3 3 5 3 3 2 3 4 4 3 4 6 11 16 18 17 15 14 13 12 11 11 9 9 8 7 7 5 5 4 3 4 5 6 5 4 4 4 5 5 7 7 8 6 8 7 4 3 4
1 2 2 2 2 1 1 3 3 1 4 6 11 17 18 17 15 13 12 11 11 10 10 8 8 7 6 4 4 4 4 4 4 5 4 4 3 3 3 2 3 4 3 3 3 2 3 3 3
2 0 1 2 1 1 2 3 2 3 5 9 14 16 17 15 14 12 11 10 10 10 10 9 8 7 6 5 4 4 3 4 4 3 4 4 4 3 3 2 2 3 3 4 3 2 3 3 3
1 2 2 1 1 3 4 4 3 5 8 11 14 15 15 14 14 12 11 10 10 10 10 8 8 8 7 5 4 3 4 3 3 4 4 5 3 3 3 4 3 3 3 2 2 3 3 3 2
3 4 4 3 3 3 5 6 4 7 9 11 12 13 13 13 13 12 12 11 10 10 9 9 9 8 7 6 6 4 4 4 4 4 5 5 5 4 4 4 4 3 3 3 3 3 3 4 4
7 8 6 5 2 3 8 3 7 8 10 10 11 12 12 12 12 11 11 10 10 9 9 9 8 9 8 7 6 5 4 4 4 4 5 6 5 5 5 4 4 3 4 4 3 4 3 3 3
9 8 5 6 3 3 7 1 7 8 9 10 10 11 12 12 12 11 11 10 10 9 9 10 9 9 8 7 6 5 4 4 4 4 5 6 6 7 6 4 3 4 4 4 4 4 3 3 3
8 6 5 4 4 4 6 2 5 7 8 9 10 11 11 12 12 12 11 10 9 9 10 10 10 9 8 6 5 5 5 5 5 5 5 6 6 7 6 5 5 6 5 4 4 3 3 3 3
3 5 4 3 1 5 5 4 4 7 9 9 10 11 11 11 11 11 11 11 10 10 10 10 10 9 7 6 6 6 5 5 5 6 7 7 7 7 7 6 6 6 6 5 6 5 6 5 4
7 8 5 4 2 4 4 5 4 6 8 7 9 10 10 10 11 11 11 11 11 11 11 10 10 10 9 7 5 4 4 4 5 5 6 7 8 8 8 8 7 7 5 6 6 6 5 5 5
9 8 5 2 3 5 6 7 7 6 6 7 8 9 10 11 11 12 12 11 11 11 11 10 10 10 10 9 6 5 4 4 5 6 6 7 8 9 8 9 8 6 7 6 7 7 8 6 5
9 5 4 5 7 4 5 5 6 7 7 8 9 9 9 10 11 11 11 11 11 10 10 9 10 10 9 9 8 8 7 7 6 5 5 7 8 9 9 10 9 8 7 7 8 8 6 7 6
3 3 5 6 7 6 6 8 4 6 7 7 7 8 8 9 10 10 10 10 9 9 9 9 9 9 9 9 8 8 8 6 5 5 5 6 6 8 9 9 8 8 7 7 8 6 7 6 7
6 6 5 7 8 9 5 7 4 4 3 3 5 6 7 8 9 9 9 8 8 8 8 8 9 9 9 9 9 9 9 8 6 6 6 6 5 6 8 8 8 8 7 8 8 7 9 7 7
11 10 8 9 8 6 3 7 2 3 1 1 3 6 7 8 9 9 9 9 8 8 7 7 7 8 8 9 9 9 9 8 8 7 6 5 5 5 7 7 7 7 8 8 8 8 8 8 8
14 14 9 7 7 5 6 7 1 3 1 1 3 5 8 9 9 9 9 8 8 8 7 7 7 7 7 8 7 6 7 5 5 6 5 5 4 5 5 6 7 7 8 8 7 7 8 7 8
13 13 10 8 6 6 5 4 3 4 4 4 5 7 8 9 9 9 9 8 8 7 7 7 6 6 6 6 5 5 5 5 4 4 5 4 4 4 5 6 6 7 7 8 7 6 7 7 7
8 10 7 9 7 8 6 7 4 6 5 5 6 7 8 9 9 9 9 8 8 7 6 6 5 5 5 5 4 4 4 3 2 3 3 3 3 4 4 5 5 5 6 6 6 6 6 6 6
10 11 10 9 8 8 6 3 3 2 4 5 6 7 8 9 9 9 8 8 8 7 7 6 6 5 4 4 3 3 2 1 1 1 2 2 2 2 3 3 3 3 4 4 4 5 5 6 6
13 13 12 10 8 8 8 2 6 3 4 5 6 8 8 8 9 9 9 9 8 7 7 7 6 6 5 4 4 4 3 2 1 1 1 1 1 1 1 1 1 2 3 3 4 4 5 5 5
Wind_Direction
225 221 236 242 218 76 67 65 68 79 73 72 77 57 54 41 30 85 115 129 131 130 125 131 121 118 114 113 114 113 113 113 112 110 109 108 107 106 106 104 104 104 104 103 103 102 100 99 99
238 230 239 243 62 77 70 65 72 68 86 101 86 76 74 67 63 107 130 133 138 132 131 125 122 121 117 115 114 114 114 113 112 111 111 110 107 107 106 105 105 104 104 105 104 103 101 100 99
240 245 268 68 62 63 73 72 80 89 97 98 87 62 58 77 105 123 132 141 138 128 123 121 130 124 121 117 115 115 114 114 113 111 111 110 107 106 106 106 106 106 105 106 105 103 102 103 102
252 230 234 81 75 65 71 83 97 106 93 82 97 88 81 78 111 128 136 142 135 136 134 124 133 127 124 121 118 117 117 116 114 113 112 112 110 108 108 108 107 108 107 106 105 105 105 106 105
249 256 139 87 77 76 78 80 91 89 85 92 96 99 90 76 114 129 140 143 142 137 129 129 134 130 128 125 122 120 119 117 116 114 114 113 113 113 112 110 109 109 108 107 106 105 106 107 108
249 245 97 85 84 85 88 91 97 88 96 102 108 108 91 113 129 138 143 147 142 137 133 127 133 133 131 128 125 123 121 117 117 117 116 114 113 113 114 113 112 111 110 109 107 106 106 108 110
303 18 80 85 93 95 87 94 84 93 105 104 112 108 117 136 139 142 142 144 142 139 135 141 144 142 138 132 130 128 123 120 119 119 118 118 117 117 118 116 116 115 114 112 108 107 108 111 113
309 239 105 90 89 86 100 106 86 89 92 108 127 124 141 146 147 144 142 147 145 144 142 144 145 144 152 145 136 133 130 127 122 121 121 122 124 124 129 132 118 118 116 115 112 110 111 114 117
272 231 90 77 71 87 119 130 106 104 118 116 89 81 124 140 149 150 152 152 151 149 148 152 146 152 157 147 139 146 141 137 142 136 136 158 149 138 152 111 120 121 120 117 114 114 121 130 128
272 74 71 54 41 79 124 142 134 152 137 128 115 109 128 145 156 163 163 162 161 161 162 156 156 155 162 149 148 158 155 150 158 138 154 152 120 127 117 119 128 127 127 130 122 128 159 185 139
298 35 56 58 37 42 140 139 156 179 133 142 145 143 148 155 164 170 169 169 165 167 169 164 161 165 170 155 165 156 147 147 150 143 149 129 144 143 140 146 150 151 162 159 149 178 176 141 104
267 54 358 346 15 258 160 143 154 144 72 114 143 150 156 164 171 174 171 172 168 175 175 173 166 171 173 172 164 171 161 160 155 146 174 154 155 153 141 158 149 161 162 153 171 161 137 126 132
224 17 329 297 260 203 196 169 130 105 108 126 140 153 163 169 171 173 171 173 173 179 179 178 178 173 175 179 198 175 167 166 154 156 167 172 171 169 155 148 163 178 161 172 185 169 150 163 163
351 294 265 235 168 166 191 154 167 124 137 142 152 161 168 170 170 170 174 178 181 184 183 179 186 183 186 186 195 186 183 175 169 177 173 187 186 168 171 176 187 187 184 170 185 172 186 197 177
238 230 187 152 163 166 201 179 169 144 152 156 162 165 169 172 173 178 180 183 185 187 186 185 188 188 197 198 199 197 197 189 191 181 182 194 200 178 196 190 195 189 178 176 199 189 202 202 192
215 217 189 138 175 176 237 161 130 156 168 169 168 167 172 176 183 183 182 184 186 186 186 190 192 188 197 204 211 209 208 199 202 197 191 197 203 198 211 207 203 189 201 194 188 208 207 204 207
206 211 180 146 169 198 239 161 131 169 180 177 175 174 177 178 188 187 185 185 187 188 185 188 197 193 197 200 207 216 209 216 216 207 203 196 205 205 217 220 203 208 211 208 216 188 215 205 217
196 201 188 173 154 223 231 222 152 180 193 188 182 181 183 185 188 187 188 186 186 187 188 190 195 196 196 200 207 216 215 215 220 217 207 206 209 211 222 220 207 218 215 214 219 203 218 228 227
227 224 198 140 133 237 234 234 185 182 198 196 189 186 188 189 181 181 187 188 186 188 191 193 197 191 194 199 207 209 213 215 216 218 213 212 216 215 222 232 208 222 218 219 215 210 206 219 215
221 223 201 159 161 253 244 238 197 192 203 205 199 192 191 185 179 180 187 191 193 193 193 194 198 194 197 200 207 215 220 225 225 226 213 219 218 221 219 226 227 220 221 217 222 218 232 224 209
219 232 221 198 194 214 248 220 195 185 201 202 206 199 192 188 184 183 190 193 193 193 195 197 198 195 199 201 203 204 204 221 218 220 217 219 220 223 231 227 230 224 227 216 219 218 224 230 224
212 214 228 219 232 204 243 251 171 186 197 198 198 197 194 189 188 187 188 191 194 195 192 195 195 198 197 200 207 209 217 221 221 220 221 221 223 227 228 229 229 227 229 222 224 218 224 228 230
210 167 215 230 243 247 216 262 166 176 209 194 188 191 194 190 187 186 188 189 191 190 189 191 193 198 199 203 206 216 229 231 230 225 228 227 225 230 230 229 229 225 230 229 233 226 229 227 235
168 177 191 227 239 238 227 260 235 177 211 187 174 179 185 181 178 176 176 173 176 177 182 186 188 195 198 203 209 218 230 237 238 236 235 225 221 228 228 229 228 227 228 226 227 227 226 234 240
203 207 206 211 219 225 168 250 265 71 67 255 183 171 169 170 169 167 170 168 167 172 176 177 183 190 196 201 209 217 227 232 235 240 238 237 230 227 223 228 227 229 229 230 228 226 235 232 233
209 221 229 234 227 195 180 240 154 95 116 173 168 157 157 161 163 163 165 165 162 166 169 171 176 182 187 194 203 213 223 229 233 240 249 242 247 245 236 230 229 233 233 234 229 232 231 229 232
203 224 244 249 253 248 204 212 196 166 171 161 155 157 156 157 159 160 158 158 157 160 166 170 170 172 177 181 191 203 212 225 235 241 244 248 250 250 243 240 235 234 235 237 234 232 235 232 232
243 214 215 237 236 239 218 226 221 180 175 160 160 160 153 154 155 151 150 151 149 150 153 155 156 157 163 170 182 181 191 207 219 245 252 261 267 270 262 248 243 241 240 238 236 235 233 231 232
192 205 216 232 243 251 233 200 111 160 158 165 158 156 153 153 150 145 144 142 140 139 141 141 138 138 139 143 146 139 143 151 179 220 255 262 271 272 268 261 255 249 244 241 236 239 237 234 235
211 209 206 217 219 245 268 173 106 132 148 152 150 148 146 143 138 136 135 136 137 137 136 134 134 130 125 125 124 119 112 114 129 90 9 360 328 313 300 282 263 257 247 243 239 241 242 240 239